Voltar ao catálogo

STARLINK-11446

AtivoComunicaçõesVLEO
NORAD 62416·PAYLOAD·🇺🇸 United States

Lançado Dec 23, 2024 de Cape Canaveral Space Force Station

Loading…

Próximas Passagens (próximas 24 horas)

TLE

AtualizadoSource: CelesTrak SupGP

Época: Sep 15, 2026, 02:41 UTC

1 62416C 24249H   26258.11229167  .00095006  00000+0  73933-3 0  2587
2 62416  43.0003 105.4398 0001301 264.4396 208.9080 15.70746421    15

Acompanhe STARLINK-11446 em tempo real com AllMySat

Download on the App Store